Content
SEND FEEDBACK

Daily
Averages
Monthly
Summary
United States of America

FAYETTEVILLE, TENNESSEE


Home > North America > United States > Tennessee
Elevation: 700 feet     Latitude: 35 10N     Longitude: 086 33W

WEATHER
 
SELECT A DAY
Number of Records: 297,994;   Date Range: 4/22/02 - 7/29/14
 
SHARE

PRINT THIS DATA

[ ← Previous Day ]
WEATHER ALMANAC - JULY 2, 2014
[ Next Day → ]
[ °C ]   °F
Weather ElementAverageHighLow
Temperature78.2 °F89.6 °F (3:35 pm)68 °F (3:35 am)
Dewpoint62.9 °F66.2 °F (8:55 pm)60.8 °F (12:35 pm)
Humidity61.4 %88 % (6:35 am)38 % (3:35 pm)
Barometer30.00 in30.04 in (11:35 pm)29.95 in (2:55 am)
Wind Speed2.9 mph10.4 mph (2:55 pm)
Weather ElementAverage
Visibility10 mi
Wind DirectionSSE (154.7 °)

Weather ElementTotal
Precipitation---
Cooling Degree Days13.8 (Base 65)
Growing Degree Days28.8 (Base 50)
Averaged from 68 records on July 2, 2014
WEATHER CONDITIONS BREAKOUT
WIND DIRECTION BREAKOUT
WEATHER BY HOUR - JULY 2, 2014
[ °C ]   °F
Local TimeTemperatureDewpointHumidityBarometerVisibilityWind DirectionWind SpeedGust SpeedPrecipitationEventsConditions
12:35 AM75.2 °F64.4 °F69 %30.00 in10.0 miCalmClear
12:55 AM73.4 °F64.4 °F73 %29.99 in10.0 miCalmClear
1:20 AM71.6 °F64.4 °F78 %29.99 in10.0 miCalmClear
1:35 AM71.6 °F64.4 °F78 %29.98 in10.0 miCalmClear
1:55 AM71.6 °F62.6 °F73 %29.97 in10.0 miCalmClear
2:15 AM69.8 °F62.6 °F78 %29.97 in10.0 miWest (270°)4.6 mphClear
2:35 AM69.8 °F64.4 °F83 %29.96 in10.0 miSSW (210°)3.5 mphClear
2:55 AM69.8 °F62.6 °F78 %29.95 in10.0 miCalmClear
3:15 AM69.8 °F62.6 °F78 %29.96 in10.0 miCalmClear
3:35 AM68.0 °F62.6 °F83 %29.98 in10.0 miCalmClear
3:55 AM68.0 °F62.6 °F83 %29.99 in10.0 miCalmClear
4:15 AM68.0 °F62.6 °F83 %30.00 in10.0 miWNW (290°)6.9 mphClear
4:35 AM69.8 °F64.4 °F83 %30.01 in10.0 miWest (260°)3.5 mphClear
4:55 AM69.8 °F62.6 °F78 %30.01 in10.0 miCalmClear
5:15 AM68.0 °F62.6 °F83 %30.01 in10.0 miCalmClear
5:35 AM68.0 °F62.6 °F83 %30.00 in10.0 miCalmClear
5:55 AM68.0 °F62.6 °F83 %30.00 in7.0 miCalmClear
6:15 AM68.0 °F62.6 °F83 %30.01 in10.0 miCalmClear
6:35 AM68.0 °F64.4 °F88 %30.01 in10.0 miCalmClear
6:55 AM69.8 °F64.4 °F83 %30.01 in10.0 miCalmClear
7:15 AM71.6 °F64.4 °F78 %30.02 in10.0 miCalmClear
7:35 AM71.6 °F64.4 °F78 %30.01 in10.0 miCalmClear
7:55 AM73.4 °F64.4 °F73 %30.01 in10.0 miCalmClear
8:15 AM75.2 °F62.6 °F65 %30.01 in10.0 miNW (310°)3.5 mphClear
8:35 AM77.0 °F62.6 °F61 %30.01 in10.0 miWNW (290°)3.5 mphClear
8:55 AM77.0 °F62.6 °F61 %30.01 in10.0 miCalmClear
9:15 AM78.8 °F62.6 °F57 %30.00 in10.0 miCalmClear
9:35 AM80.6 °F62.6 °F54 %29.99 in10.0 miCalmClear
9:55 AM80.6 °F62.6 °F54 %30.00 in10.0 miCalmClear
10:15 AM80.6 °F62.6 °F54 %30.01 in10.0 miNNW (340°)4.6 mphClear
10:35 AM82.4 °F62.6 °F51 %30.01 in10.0 miCalmClear
10:55 AM82.4 °F64.4 °F54 %30.01 in10.0 miWNW (300°)5.8 mphClear
11:15 AM84.2 °F62.6 °F48 %30.01 in10.0 miNorth (10°)4.6 mphClear
11:35 AM84.2 °F62.6 °F48 %30.01 in10.0 miCalmClear
11:55 AM84.2 °F62.6 °F48 %30.01 in10.0 miNW (320°)5.8 mphClear
12:15 PM86.0 °F62.6 °F45 %30.01 in10.0 miNW (320°)3.5 mphClear
12:35 PM86.0 °F60.8 °F43 %30.02 in10.0 miSW (230°)4.6 mphScattered Clouds
12:55 PM86.0 °F60.8 °F43 %30.02 in10.0 miWest (280°)5.8 mphScattered Clouds
1:15 PM86.0 °F60.8 °F43 %30.02 in10.0 miWest (260°)4.6 mphClear
1:35 PM86.0 °F60.8 °F43 %30.02 in10.0 miWest (280°)5.8 mphScattered Clouds
1:55 PM87.8 °F60.8 °F40 %30.02 in10.0 miWNW (290°)6.9 mphClear
2:15 PM87.8 °F60.8 °F40 %30.02 in10.0 miWest (260°)3.5 mphScattered Clouds
2:35 PM87.8 °F60.8 °F40 %30.02 in10.0 miWNW (300°)6.9 mphScattered Clouds
2:55 PM87.8 °F60.8 °F40 %30.02 in10.0 miWest (280°)10.4 mphScattered Clouds
3:15 PM87.8 °F60.8 °F40 %30.01 in10.0 miWest (270°)8.1 mphScattered Clouds
3:35 PM89.6 °F60.8 °F38 %30.01 in10.0 miWest (270°)6.9 mphClear
3:55 PM89.6 °F60.8 °F38 %30.00 in10.0 miNW (310°)5.8 mphClear
4:15 PM87.8 °F60.8 °F40 %30.00 in10.0 miNW (310°)5.8 mphScattered Clouds
4:35 PM89.6 °F60.8 °F38 %30.00 in10.0 miWNW (290°)4.6 mphScattered Clouds
5:55 PM87.8 °F60.8 °F40 %29.99 in10.0 miNW (310°)5.8 mphClear
6:15 PM87.8 °F60.8 °F40 %29.98 in10.0 miWNW (300°)6.9 mphClear
6:35 PM86.0 °F60.8 °F43 %29.98 in10.0 miWNW (300°)6.9 mphClear
6:55 PM86.0 °F60.8 °F43 %29.99 in10.0 miWNW (290°)8.1 mphClear
7:15 PM82.4 °F62.6 °F51 %30.00 in10.0 miNW (320°)5.8 mphClear
7:35 PM80.6 °F64.4 °F58 %30.00 in10.0 miNW (320°)4.6 mphClear
7:55 PM80.6 °F64.4 °F58 %30.00 in10.0 miNW (310°)3.5 mphClear
8:15 PM78.8 °F64.4 °F61 %30.00 in10.0 miCalmClear
8:35 PM77.0 °F64.4 °F65 %30.01 in10.0 miWNW (290°)3.5 mphClear
8:55 PM77.0 °F66.2 °F69 %30.01 in10.0 miCalmClear
9:15 PM78.8 °F64.4 °F61 %30.02 in10.0 miWest (260°)4.6 mphClear
9:35 PM78.8 °F64.4 °F61 %30.03 in10.0 miWest (270°)3.5 mphClear
9:55 PM77.0 °F64.4 °F65 %30.02 in10.0 miCalmClear
10:15 PM75.2 °F64.4 °F69 %30.02 in10.0 miCalmClear
10:35 PM77.0 °F64.4 °F65 %30.02 in10.0 miWest (260°)6.9 mphClear
10:55 PM77.0 °F64.4 °F65 %30.03 in10.0 miWest (260°)3.5 mphClear
11:15 PM75.2 °F64.4 °F69 %30.03 in10.0 miCalmClear
11:35 PM75.2 °F64.4 °F69 %30.04 in10.0 miSSW (210°)3.5 mphClear
11:55 PM75.2 °F64.4 °F69 %30.04 in10.0 miWest (270°)3.5 mphClear
Hourly data recorded from KMDQ, located miles away from Fayetteville, Tennessee







STORIES FROM OUR PARTNERS